Back to catalog

STARLINK-37237

AliveCommunicationsVLEO
NORAD 69185·PAYLOAD·🇺🇸 United States

Launched May 25, 2026 from Cape Canaveral Space Force Station

Loading…

Next Passes (next 24 hours)

TLE

FreshSource: CelesTrak SupGP

Epoch: Sep 14, 2026, 23:08 UTC

1 69185C 26114D   26257.96437500  .00005582  00000+0  16508-3 0  2578
2 69185  53.1560 139.8839 0001202  87.1379 233.6188 15.34354223    16

Track STARLINK-37237 in real time with AllMySat

Download on the App Store